Weather in Borki

Russia / Novgorod Oblast     58°22′51″N   31°00′27″E
temp.,
°C
wind,
m/s
gust,
m/s
humid.,
%
clouds,
%
prec.,
mm/h
press.,
hPa
HPBL,
m
4 march, thu
thu400:00+2w71396100 0.6 1003896
03:000nw31080100 1.8 1003682
06:00−2nw499260 0.0 1002429
09:00−3nw388532 0.0 1003448
12:00−1nw36690 0.0 1003814
15:000nw466322 0.1 10031223
18:00−2nnw487670 0.3 1004717
21:00−4nw497979 0.4 1005833
5 march, fri
fri500:00−5nw388253 0.0 1006459
03:00−5wnw378739 0.0 1007295
06:00−6wnw268973 0.0 1007293
09:00−6nw368744 0.0 1009419
12:00−4nnw347285 0.0 1010760
15:00−3nw357192 0.1 1012835
18:00−4nnw3678100 0.1 1013766
21:00−6nnw278475 0.1 1016411
6 march, sat
sat600:00−6nw368672 0.0 1017361
03:00−7nw269474 0.0 1018214
06:00−8wnw269131 0.0 1018222
09:00−7wnw368616 0.0 1018350
12:00−4wsw36690 0.0 1017730
15:00−2sw6105421 0.0 10141319
18:00−3sw71373100 0.0 10091238
21:00−1sw71869100 0.6 10041496
7 march, sun
sun700:00−2wsw81692100 0.7 9981252
03:00−1wsw71494100 2.3 9951101
06:00−5nw51366100 2.9 9931271
09:00−6wnw4125574 2.9 9951414
12:00−4wsw7135857 0.0 9951808
15:00−4wsw8158578 0.7 9921488
18:00−4wnw51077100 1.1 9901304
21:00−8wnw5109194 1.3 993799
8 march, mon
mon800:00−8nnw61276100 0.4 997959
03:00−10nw6128093 0.4 1001697
06:00−10nw5108399 0.0 1003797
09:00−12nw5981100 0.1 1006845
12:00−10nnw5874100 0.1 10091001
15:00−9nnw5873100 0.1 10111037
18:00−10nnw5881100 0.1 10141005
21:00−12n4985100 0.1 1017869